Apple Cup Yearling Classic - Goldendale 4-21

Station: Goldendale WA - T Race

Distance: 61.4 Miles    

Release: 21-Apr-2017 09:30

Weather Release:    Arrival:

Wind at Release:     Wind at Arrival:

Temp at Release: °    Temp at Arrival: °

Lofts: 155

Birds: 461

Clocked: 460

Good Luck to Everyone!
Drops Pos Breeder Pigeon Name Color Sex Ent Arrival Speed To Win Eligible ABC
1 Silvercreek Loft - ON 1787-CU16-SILV BCPD H 1 11:00:07.78 1198.984 00:00:00 Lost
2 John Gutierrez - NM 25803-AU16-FOYS BB H 1 11:00:08.55 1198.813 00:00:00 Missing
3 Bar S - UT 2200-AU16-OGN BC H 1 11:00:09.25 1198.658 00:00:01 Yes
4 David Clausing - FL 0122-IF16-CLAU BB H 1 11:00:09.67 1198.565 00:00:01 Yes
5 Roy Kinser - VA 23580-AU16-FOYS BB H 1 11:00:10.21 1198.445 00:00:02 Lost
6 Himes Family Loft - OK 59561-AU16-ARPU BC H 1 11:00:10.26 1198.434 00:00:02 Lost
7 Himes Family Loft - OK 59560-AU16-ARUP BCPD H 2 11:00:10.82 1198.310 00:00:03 Lost
8 Stelling Loft - NM 0288-AU16-NMRP BB H 1 11:00:11.24 1198.217 00:00:03 Lost
9 Fassio/Royer Team - UT 6376-AU16-SLI BB H 1 11:00:11.46 1198.168 00:00:03 Yes
10 American Lofts - OR 7560-AU16-CORP Winner GRIZ H 1 11:00:13.03 1197.821 00:00:05 Lost
11 Dave Naylor - BC 0350-CU16-MP BB H 1 11:00:13.34 1197.752 00:00:05 Lost
12 Racing Pigeon Mall - WA 0637-AU16-RPM BLK H 1 11:00:13.49 1197.719 00:00:05 Lost
13 Roy Kinser - VA 23579-AU16-FOYS BBWF H 2 11:00:13.71 1197.670 00:00:05 Yes
14 Daehn/Miele - FL 0046-AU16-NWFL BB H 1 11:00:14.67 1197.458 00:00:06 Lost
15 Warbird Loft - CO 6013-AU16-FH Foothills Pride BB H 1 11:00:14.81 1197.427 00:00:07 Lost
16 Twin Loft & Joe - MD 62399-IF16-BWI Dink BB H 1 11:00:15.28 1197.323 00:00:07 Missing
17 Ramon Guerrero & Refujio Martinez - WA 0394-AU16-SKI BC H 1 11:00:15.45 1197.286 00:00:07 Lost
18 Western Loft - CA 1575-AU16-SFR BB H 1 11:00:15.69 1197.232 00:00:07 Lost
19 Floridian Loft - FL 2565-AU16-SCHE DEN 65 BB H 1 11:00:16.97 1196.950 00:00:09 Missing
20 Dream Team - VT 3487-IF16-MH BC H 1 11:00:18.09 1196.702 00:00:10 Yes
21 Floridian Loft - FL 2545-AU16-SCHE DEN 45 BC H 2 11:00:18.78 1196.550 00:00:11 Lost
22 Torontotrifecta.Com - ON 26512-AU16-JEDD BB H 1 11:00:19.46 1196.400 00:00:11 Lost
23 Flyhome Loft - CA 18464-AU16-JEDD DC H 1 11:00:19.56 1196.378 00:00:11 Missing
24 Michael Francisco - HI 0089-AU16-LANA PIED H 1 11:00:19.57 1196.375 00:00:11 Lost
25 Zheng Family Loft - NY 20260-AU16-ARPU Diamond Sissi BB H 1 11:00:21.12 1196.033 00:00:13 Lost
26 David Clausing - FL 0143-IF16-CLAU RB H 2 11:00:21.96 1195.848 00:00:14 Lost
27 Arnold Swain - WA 0484-AU16-YAK YakimaMan BC H 1 11:00:22.36 1195.760 00:00:14 Lost
28 Afernhill - WA 1198-AU16-TAC BB H 1 11:00:22.59 1195.709 00:00:14 Lost
29 Warbird Loft - CO 6307-AU16-FH Supercrack Rookies Jet BB H 2 11:00:24.16 1195.363 00:00:16 Lost
30 Ordonez Loft - CA 0466-AU16-FMT BB H 1 11:00:24.48 1195.292 00:00:16 Lost
31 Cactus Lofts - BC 0925-AU16-AONE BB H 1 11:00:25.85 1194.991 00:00:18 Yes
32 Bird Dog Syndicate 2 - CA 0571-AU16-FVC BC H 1 11:00:26.27 1194.898 00:00:18 Lost
33 American Lofts - OR 7561-AU16-CORP W#2 BRNZ H 2 11:00:27.05 1194.726 00:00:19 Lost
34 Captain Chuck - OR 20654-AU16-ARPU BC H 1 11:00:27.66 1194.592 00:00:19 Lost
35 Val & Bill - BC 1706-CU16-WCW BB H 1 11:00:28.11 1194.493 00:00:20 Yes
36 Cactus Lofts - BC 0931-AU16-AONE BCWF H 2 11:00:28.44 1194.420 00:00:20 Lost
37 Tim Farr - WA 26273-AU16-AA White Blaze BCSP H 1 11:00:29.86 1194.108 00:00:22 Lost
38 Dream Team - VT 54185-AU16-ARPU BC H 2 11:00:29.91 1194.097 00:00:22 Lost
39 Flyhome Loft - CA 18454-AU16-JEDD BLAK H 2 11:00:30.60 1193.945 00:00:22 Lost
40 Tres Coronas Loft - CA 27727-CU16-MEX Santo SILV H 1 11:00:30.97 1193.864 00:00:23 Lost
41 Eze Loft - HI 0047-AU16-EZE BC H 1 11:00:31.33 1193.785 00:00:23 Lost
42 Nanez Family Lofts - WI 44152-AU16-AA Genoan Ace-Constant Teen BB H 1 11:00:31.38 1193.774 00:00:23 Lost
43 Silvercreek Loft - ON 0693-CU16-GUEL BB H 2 11:00:31.89 1193.662 00:00:24 Lost
44 Kfly Racing Pigeon Loft - ID 1677-AU16-KFLY TOC Stichelbaut x Ruby RB C 1 11:00:32.21 1193.592 00:00:24 Lost
45 Ojibwe Loft - OK 64626-AU16-ARPU BB H 1 11:00:33.31 1193.350 00:00:25 Lost
46 Kastle Loft - KY 1676-AU16-KAST Kastle Lucydon BB H 1 11:00:34.10 1193.176 00:00:26 Lost
47 Flyhome Loft - CA 18425-AU16-JEDD BB H 3 11:00:34.74 1193.036 00:00:26 Lost
48 Sparks Trio Syn - NV 0999-AU16-MACH BC H 1 11:00:34.88 1193.005 00:00:27 Lost
49 Crooked River Challenge - OR 7656-AU16-CORP BB H 1 11:00:34.98 1192.983 00:00:27 Lost
50 Kwan Loft - CA 0698-AU16-KWAN DCWF H 1 11:00:35.42 1192.887 00:00:27 Yes
51 Ramon Guerrero & Refujio Martinez - WA 0095-AU16-EVER BB H 2 11:00:35.47 1192.876 00:00:27 Lost
52 Kim Wong - VT 20923-AU16-ARPU BC H 1 11:00:36.03 1192.753 00:00:28 Yes
53 Floridian Loft - FL 2573-AU16-SCHE DEN 73 BB H 3 11:00:38.04 1192.312 00:00:30 Yes
54 Greek Connection - SC 0070-AU16-GREK 3395x220 BB H 1 11:00:38.14 1192.290 00:00:30 Yes
55 Bourgoin Family Lofts - MN 88976-AU16-ARPU Ludo-Stoll-Klaas BC H 1 11:00:38.55 1192.200 00:00:30 Lost
56 Mc Laughlin Lofts - MA 0492-AU16-MCLO BB H 1 11:00:38.89 1192.126 00:00:31 Lost
57 Fassio/Royer Team - UT 6272-AU16-SLI BC H 2 11:00:39.07 1192.086 00:00:31 Yes
58 Captain Chuck - OR 20748-AU16-ARPU BB H 2 11:00:39.94 1191.895 00:00:32 Missing
59 Little Reata Loft - TX 16199-AU16-JETT BB H 1 11:00:40.02 1191.878 00:00:32 Lost
60 Qxy Loft - MA 7586-AU16-VITA BB H 1 11:00:40.17 1191.845 00:00:32 Lost
61 Alan Porter - WI 0462-AU16-GUYS BB H 1 11:00:41.54 1191.545 00:00:33 Lost
62 Fassio/Royer Team - UT 6263-AU16-SLI BB H 3 11:00:41.92 1191.462 00:00:34 Lost
63 Western Loft - CA 0341-AU16-CHUI BB H 2 11:00:42.79 1191.271 00:00:35 Yes
64 Flyhome Loft - CA 1645-AU16-FLYH BC H 4 11:00:43.20 1191.182 00:00:35 Yes
65 Igor & Sons Loft - OR 10469-AU16-HOOD BC H 1 11:00:44.21 1190.961 00:00:36 Lost
66 Western Loft - CA 0340-AU16-HAY BC H 3 11:00:44.45 1190.908 00:00:36 Yes
67 Dj Loft Of Utah - UT 46806-AU16-ARPU Took A Detour BB H 1 11:00:45.14 1190.757 00:00:37 Lost
68 Marengo Creek Farms - AL 2521-AU16-MFC BBWF H 1 11:00:45.28 1190.727 00:00:37 Lost
69 Val & Bill - BC 1606-CU16-WCW BC H 2 11:00:45.33 1190.716 00:00:37 Lost
70 A-Lin Loft - ME 36361-AU16-AA BC H 1 11:00:46.24 1190.517 00:00:38 Yes
71 Western Loft - CA 0338-AU16-CHUI BB H 4 11:00:46.65 1190.427 00:00:38 Lost
72 Racing Pigeon Mall - WA 0635-AU16-RPM BB H 2 11:00:47.34 1190.276 00:00:39 Lost
73 Val & Bill - BC 1707-CU16-WCW RC H 3 11:00:47.44 1190.255 00:00:39 Lost
74 Fl Lin Loft - FL 4371-AU16-ARPU BB H 1 11:00:47.95 1190.143 00:00:40 Lost
75 Sarrett Racing Pigeons - TX 6985-AU16-PPH 43x45 BB H 1 11:00:48.09 1190.112 00:00:40 Lost
76 John Gutierrez - NM 25797-AU16-FOYS BC H 2 11:00:48.54 1190.014 00:00:40 Lost
77 John Partridge - CA 0150-AU16-PASO BB H 1 11:00:48.64 1189.992 00:00:40 Lost
78 Greek Connection - SC 0071-AU16-GREK 3395x220 BB H 2 11:00:48.76 1189.966 00:00:40 Yes
79 Floridian Loft - FL 2554-AU16-SCHE DEN 54 BB H 4 11:00:50.88 1189.503 00:00:43 Lost
80 Bar S - UT 2105-AU16-OGN BB H 2 11:00:51.21 1189.431 00:00:43 Yes
81 Donald Johnson - MA 0899-AU16-NB BB H 1 11:00:51.67 1189.331 00:00:43 Lost
82 David Clausing - FL 0164-IF16-CLAU BB H 3 11:00:52.40 1189.172 00:00:44 Lost
83 Applis Loft - MO 14337-AU16-AA Redbull 337 BB H 1 11:00:54.24 1188.771 00:00:46 Lost
84 A & B Loft - OR 10827-AU16-MTHD BB H 1 11:00:54.43 1188.729 00:00:46 Lost
85 Nanez Family Lofts - WI 6893-AU16-NFL FAUST - THORSTEN DAUM BBWF H 2 11:00:54.85 1188.638 00:00:47 Lost
86 Blue Bucket Stampede - OR 6238-AU16-CORP 1391x3010 BBWF H 1 11:00:54.98 1188.609 00:00:47 Lost
87 Little Reata Loft - TX 16224-AU16-JETT BC H 2 11:00:56.86 1188.200 00:00:49 Lost
88 Crooked Arrow Loft - IA 19901-AU16-AA RC H 1 11:00:56.90 1188.191 00:00:49 Lost
89 Yo Yo Spetz - CA 1609-AU16-JEDD Southerner BBWF H 1 11:00:57.37 1188.089 00:00:49 Lost
90 Lazy A C Loft - IN 0618-AU16-INDY BC H 1 11:00:58.67 1187.806 00:00:50 Yes
91 H N R Walker - WA 0489-AU16-YAK Sterling BBWF H 1 11:00:58.72 1187.795 00:00:50 Lost
92 Silvercreek Loft - ON 0700-CU16-GUEL BC H 3 11:00:59.48 1187.630 00:00:51 Lost
93 Crescendo Loft - NM 16538-AU16-PUEB BBPD H 1 11:01:00.14 1187.486 00:00:52 Lost
94 Mels Loft - NY 0065-AU16-MTFL SON OF VOSSE BB H 1 11:01:00.55 1187.397 00:00:52 Yes
95 Lulus Loft - CA 0418-AU16-SD 354 BC H 1 11:01:00.68 1187.369 00:00:52 Lost
96 Kwan Loft - CA 0686-AU16-KWAN RB H 2 11:01:00.82 1187.338 00:00:53 Yes
97 Jan Loft - CA 0445-AU16-SFR BB H 1 11:01:03.12 1186.838 00:00:55 Lost
98 Jones Family Loft - TX 0653-AU16-KJRA BB H 1 11:01:03.17 1186.827 00:00:55 Lost
99 Fl Lin Loft - FL 77780-AU16-ARPU BB H 2 11:01:04.00 1186.647 00:00:56 Lost
100 G T Family Loft - IL 0255-AU16-EHC BB H 1 11:01:04.50 1186.539 00:00:56 Yes

There are 114 bird records

Note: These Race Results are unofficial and subject to change until verified by the Race Committee and declared final.


Click for forecast!